Flag for U.S.A. Weather past 2 weeks in Hialeah, Florida, U.S.A.

Now
61 °F

Passing clouds.


Feels Like: 61 °F
Forecast: 61 / 72 °F
Wind: 8 mph from North

Location: Opa Locka Airport

Current Time: Jan 31, 2015 at 5:18:46 AM

Latest Report: Jan 31, 2015 at 4:53 AM


Visibility: 10 mi

Pressure: 30.16 "Hg

Humidity: 67%

Dew point: 50 °F

Location of HialeahLocation

Historic Weather in Hialeah — Graph

°F

Hialeah temperature yesterday

Maximum temperature yesterday: 75 °F (at 3:53 PM)
Minimum temperature yesterday: 59 °F (at 6:53 AM)
Average temperature yesterday: 67 °F

Past Weeks' High & Low Weather Summary

 TemperatureHumidityPressure
High81 °F (Jan 21, 11:53 AM)94% (Jan 22, 6:53 AM)30.28 "Hg (Jan 22, 6:53 AM)
Low51 °F (Jan 25, 5:53 AM)24% (Jan 28, 2:53 PM)29.86 "Hg (Jan 26, 2:53 PM)
Average66 °F67%30.08 "Hg
* Reported Jan 16 3:53 AM — Jan 31 3:53 AM, Hialeah, Weather by CustomWeather, © 2014

Note: Actual official high and low records may vary slightly from our data, if they occured in-between our weather recording intervals... More about our weather records

Advertising

Hialeah weather history for previous 24 hours

 ConditionsComfort  
Time TempWeatherWind HumidityBarometerVisibility
3:53 AM
Jan 31
62 °FPassing clouds.9 mph70%30.15 "Hg10 mi
2:53 AM62 °FPassing clouds.9 mph78%30.15 "Hg10 mi
1:53 AM62 °FClear.8 mph80%30.16 "Hg10 mi
12:53 AM63 °FClear.8 mph78%30.16 "Hg10 mi
11:53 PM
Jan 30
63 °FPassing clouds.8 mph73%30.16 "Hg10 mi
10:53 PM62 °FClear.No wind67%30.17 "Hg10 mi
9:53 PM63 °FClear.No wind65%30.16 "Hg10 mi
8:53 PM64 °FClear.No wind61%30.15 "Hg10 mi
7:53 PM68 °FClear.5 mph51%30.16 "Hg10 mi
6:53 PM70 °FClear.No wind46%30.15 "Hg10 mi
5:53 PM72 °FSunny.6 mph40%30.14 "Hg10 mi
4:53 PM74 °FSunny.6 mph38%30.13 "Hg10 mi
3:53 PM75 °FSunny.5 mph42%30.12 "Hg10 mi
2:53 PM74 °FSunny.9 mph41%30.13 "Hg10 mi
1:53 PM74 °FSunny.5 mph43%30.15 "Hg10 mi
12:53 PM73 °FPassing clouds.9 mph46%30.17 "Hg10 mi
11:53 AM72 °FSunny.10 mph48%30.21 "Hg10 mi
10:53 AM70 °FSunny.9 mph51%30.23 "Hg10 mi
9:53 AM69 °FSunny.9 mph55%30.24 "Hg10 mi
8:53 AM65 °FPassing clouds.8 mph59%30.22 "Hg10 mi
7:53 AM61 °FPartly sunny.7 mph72%30.21 "Hg10 mi
6:53 AM59 °FOvercast.5 mph81%30.19 "Hg10 mi
5:53 AM60 °FPassing clouds.3 mph75%30.17 "Hg10 mi
Weather by CustomWeather, © 2014

See weather overviewHow to use our weather pages